Wind from 070 at 12 knots

Air temperature 10.0° C
Dewpoint -2.0° C

Last reported at 2014-Apr-23 08:20 UTC.
Time now 2014-Apr-23 09:49 UTC

Location: N 59°14' E 015°03'.
View on Google Maps.

See reports from other nearby stations

Tides Stations Pressure Air Temp Water Temp Dewpoint Dewpoint depression Visibility Wind Speed Wind Dir Waves Ship positions

  
sailing weather and tide predictions

OREBRO PRIVATE weather

date/time (UTC)wind fromknots sea level pressurealtimeterstation pressurevisibilityair tempwater tempwave heightnotes
2014-Apr-23 08:20 070 12 10.0
2014-Apr-23 07:50 070 13 9.0
2014-Apr-23 07:20 060 14 9.0
2014-Apr-23 06:50 070 11 8.0
2014-Apr-23 06:20 070 12 8.0
2014-Apr-23 05:50 060 10 7.0
2014-Apr-23 05:20 040 10 6.0
2014-Apr-23 04:50 030 10 4.0
2014-Apr-23 04:20 040 9 4.0
2014-Apr-23 03:50 020 8 4.0
2014-Apr-23 03:20 020 8 5.4 4.0
2014-Apr-23 02:50 010 8 5.4 4.0
2014-Apr-23 02:20 010 8 5.4 4.0
2014-Apr-23 01:50 010 8 5.4 4.0
2014-Apr-23 01:20 010 9 5.4 4.0
2014-Apr-23 00:50 030 7 4.0
2014-Apr-23 00:20 020 7 4.0
2014-Apr-22 23:50 030 7 5.0
2014-Apr-22 23:20 040 7 7.0
2014-Apr-22 22:50 020 7 6.0
2014-Apr-22 22:20 050 7 6.0
2014-Apr-22 21:50 070 6 9.0
2014-Apr-22 21:20 060 8 10.0
2014-Apr-22 20:50 080 9 11.0
2014-Apr-22 20:20 080 9 12.0
2014-Apr-22 19:50 080 10 12.0
2014-Apr-22 19:20 080 8 13.0
2014-Apr-22 18:50 070 10 14.0
2014-Apr-22 18:20 080 9 15.0
2014-Apr-22 17:50 070 12 16.0
2014-Apr-22 17:20 090 10 17.0
2014-Apr-22 16:50 090 11 17.0
2014-Apr-22 16:20 090 11 18.0
2014-Apr-22 15:50 060 11 18.0
2014-Apr-22 15:20 060 11 19.0
2014-Apr-22 14:50 060 8 19.0
2014-Apr-22 14:20 070 9 19.0
2014-Apr-22 13:50 090 9 19.0
2014-Apr-22 13:20 080 9 19.0
2014-Apr-22 12:50 090 9 19.0
2014-Apr-22 12:20 080 8 19.0
2014-Apr-22 11:50 080 9 18.0
2014-Apr-22 11:20 030 8 18.0
2014-Apr-22 10:50 040 9 18.0
2014-Apr-22 10:20 080 10 18.0
2014-Apr-22 09:50 060 9 17.0
2014-Apr-22 09:20 030 9 16.0
2014-Apr-22 08:50 040 10 15.0
2014-Apr-22 08:20 020 10 14.0
2014-Apr-22 07:50 030 9 14.0
2014-Apr-22 07:20 030 9 12.0
2014-Apr-22 06:50 050 9 12.0
2014-Apr-22 06:20 030 7 11.0
2014-Apr-22 05:50 030 6 10.0
2014-Apr-22 05:20 030 8 8.0
2014-Apr-22 04:50 030 8 7.0
2014-Apr-22 04:20 020 7 6.0
2014-Apr-22 03:50 030 5 4.0
2014-Apr-22 03:20 010 7 5.4 5.0
2014-Apr-22 02:50 010 7 5.4 5.0
2014-Apr-22 02:20 010 7 5.4 5.0
2014-Apr-22 01:50 010 7 5.4 6.0
2014-Apr-22 01:20 010 6 5.4 5.0
2014-Apr-22 00:50 010 5 5.4 6.0
2014-Apr-22 00:20 360 5 5.4 7.0
2014-Apr-21 23:50 350 4 5.4 7.0
2014-Apr-21 23:20 340 4 5.4 6.0
2014-Apr-21 22:50 330 5 5.4 6.0
2014-Apr-21 22:20 100 2 5.4 7.0
2014-Apr-21 21:50 080 4 5.4 8.0
2014-Apr-21 21:20 050 3 5.4 9.0
2014-Apr-21 20:50 120 4 11.0
2014-Apr-21 20:20 060 7 14.0
2014-Apr-21 19:50 060 7 14.0
2014-Apr-21 19:20 050 6 14.0
2014-Apr-21 18:50 040 6 14.0
2014-Apr-21 18:20 060 6 16.0
2014-Apr-21 17:50 060 7 18.0
2014-Apr-21 17:20 060 8 18.0
2014-Apr-21 16:50 070 9 5.419.0
2014-Apr-21 16:20 070 11 5.419.0
2014-Apr-21 15:50 070 9 5.419.0
2014-Apr-21 15:20 070 9 5.419.0
2014-Apr-21 14:50 080 10 5.419.0
2014-Apr-21 14:20 040 10 5.419.0
2014-Apr-21 13:50 060 9 5.419.0
2014-Apr-21 13:20 050 10 5.419.0
2014-Apr-21 12:50 100 10 5.419.0
2014-Apr-21 12:20 060 11 5.419.0
2014-Apr-21 11:50 090 13 5.418.0
2014-Apr-21 11:20 100 12 5.418.0
2014-Apr-21 10:50 070 11 5.417.0
2014-Apr-21 10:20 060 10 5.417.0
2014-Apr-21 09:50 070 10 5.416.0
2014-Apr-21 09:20 070 9 5.415.0